Theta_e
333 332 334 335 335 336 337 338 339 341 341 342 343 346 347 350 350 349 349 348 348 349 348 349 351 351 349 350 351 349 351 351 351 350 348 349 352 352 352 354 355 354 353 352 353 355 356 358 357 358 358 360 358 362 364 363 362 366 361 362 361 362 358
334 333 334 335 335 336 338 339 339 340 340 342 343 346 348 349 350 350 349 349 349 350 349 349 352 351 351 351 352 350 351 352 352 357 350 352 356 354 355 356 356 357 355 356 355 356 356 357 357 357 358 362 360 362 364 364 363 363 361 362 361 359 361
335 335 334 334 335 335 338 339 339 340 339 341 344 347 348 349 350 350 350 349 348 351 351 349 352 351 352 351 352 351 352 353 354 355 350 351 353 354 356 357 356 357 357 358 357 358 358 356 357 356 357 360 360 361 364 363 362 363 361 361 362 361 358
335 335 335 334 335 336 337 339 340 340 339 341 344 347 348 350 351 352 352 351 349 352 351 350 352 352 352 352 352 352 352 353 355 355 352 353 353 355 355 356 356 357 357 357 359 359 362 357 357 355 363 359 360 361 363 362 362 361 361 360 360 360 359
335 336 335 333 333 334 335 338 339 339 338 341 345 348 350 351 352 352 353 353 351 352 354 352 353 353 353 353 354 354 353 354 355 356 354 355 356 356 355 355 356 355 357 357 357 359 358 357 355 355 357 358 358 361 361 361 360 361 359 359 358 359 359
335 335 336 337 334 333 334 337 338 339 338 341 344 347 349 351 352 352 353 354 353 354 356 354 354 355 352 353 355 354 354 355 355 356 355 354 355 354 354 355 356 356 356 356 357 357 358 356 355 356 356 357 358 361 361 360 359 360 359 359 358 358 358
336 337 337 337 338 334 334 335 337 339 339 343 345 347 350 351 351 352 353 354 354 353 355 355 355 356 354 354 354 355 353 355 354 354 355 354 354 353 354 355 356 355 355 357 355 355 356 355 355 355 357 356 358 360 360 359 359 358 359 359 358 357 358
335 335 337 339 338 339 335 334 336 338 339 343 344 346 348 350 351 352 352 354 354 355 355 356 356 356 356 355 355 354 354 354 355 355 354 353 353 353 352 353 355 354 355 355 355 355 354 355 355 356 358 357 356 358 359 359 358 358 358 359 358 356 360
334 334 336 338 340 342 342 337 336 337 337 340 343 345 347 349 350 351 352 353 354 354 354 356 357 356 356 356 354 353 354 354 354 354 353 353 352 353 353 353 354 354 354 354 354 355 354 354 355 355 356 356 355 356 357 357 357 358 358 359 358 356 359
331 333 339 342 341 342 339 339 340 335 336 339 342 344 346 348 350 351 352 353 354 353 354 355 356 356 355 355 355 354 354 353 353 353 353 353 352 352 353 353 352 354 353 354 354 353 354 354 354 354 354 354 354 354 354 356 356 357 357 358 359 358 358
336 337 338 338 337 339 341 341 342 340 337 338 342 344 345 347 348 349 351 352 353 353 355 354 355 354 355 354 354 353 353 353 353 353 352 352 352 350 351 351 351 352 353 353 352 353 353 353 354 354 354 354 354 353 353 355 356 356 357 358 359 359 359
335 337 338 337 338 338 338 338 342 343 338 338 341 342 344 346 347 348 350 351 353 353 353 353 354 353 354 353 353 352 351 352 352 352 352 352 352 351 350 350 350 350 352 353 351 351 352 352 353 354 354 354 354 354 355 355 356 357 357 357 358 359 359
335 336 337 338 338 338 339 338 340 337 339 339 340 342 344 345 346 347 348 347 347 349 350 351 352 351 352 352 352 351 350 351 351 352 352 352 352 352 351 349 349 349 351 353 351 350 350 352 352 353 354 355 350 344 346 346 347 348 350 353 357 358 358
339 336 337 337 336 335 335 337 337 339 341 341 341 342 343 342 343 343 343 344 346 345 345 344 343 345 348 351 351 350 349 350 351 350 351 351 352 351 351 350 349 348 350 352 351 349 349 349 352 352 351 350 349 347 348 347 346 345 346 345 348 353 356
335 336 336 336 334 334 335 337 338 339 341 343 345 345 346 347 347 348 348 350 351 352 351 349 347 345 342 341 341 344 347 349 349 350 352 353 351 350 349 347 346 346 346 350 351 351 351 351 350 351 352 350 350 349 350 349 348 348 347 346 345 347 352
331 331 332 333 335 336 335 336 338 340 341 342 343 344 345 346 347 347 349 350 351 351 352 350 348 347 346 344 342 343 343 347 351 352 353 352 352 353 356 358 357 354 351 348 349 349 349 349 350 349 347 349 349 350 351 350 350 350 353 353 350 347 350
330 331 331 331 332 334 336 337 337 338 339 340 342 343 343 344 345 346 347 348 349 350 350 349 346 347 346 346 345 345 343 344 344 344 344 350 350 350 351 353 355 353 349 348 349 349 350 347 346 346 348 349 348 348 349 351 351 351 339 340 347 354 352
329 330 331 331 332 333 334 335 336 336 337 338 339 341 341 341 342 343 342 345 346 348 350 349 347 346 347 347 347 348 348 347 347 346 346 345 344 346 348 351 350 350 349 347 347 347 348 347 346 347 348 349 347 347 349 349 353 336 332 334 335 344 353
329 330 330 331 331 333 333 334 335 336 336 337 338 338 339 341 341 340 342 343 344 347 347 346 347 347 347 347 347 346 346 347 345 346 346 346 347 347 347 350 350 349 350 349 349 347 345 346 347 346 347 347 346 347 349 345 332 327 330 330 331 335 352
329 330 331 332 333 334 334 335 335 336 336 336 337 338 339 339 338 339 342 343 344 343 343 343 343 343 343 343 344 344 345 346 345 344 345 346 346 345 344 345 350 352 352 351 349 347 348 348 346 347 347 347 346 347 343 336 328 325 327 328 329 332 342
329 329 330 331 332 334 335 335 336 337 337 338 338 338 338 338 339 338 338 339 340 341 341 340 340 339 340 340 341 341 341 342 343 343 343 344 345 345 344 344 343 349 350 350 347 346 346 347 347 349 351 352 349 342 337 330 321 321 324 323 325 328 343
329 330 329 331 332 333 334 335 336 336 336 338 338 338 338 337 338 337 337 338 337 337 338 338 338 338 339 338 338 338 339 339 339 340 341 342 343 343 342 343 342 343 347 349 347 346 347 347 347 347 349 350 345 341 335 325 318 318 319 320 322 334 352
322 320 321 322 325 327 332 335 335 335 335 334 335 334 334 335 335 334 333 333 334 335 335 336 335 336 336 337 338 338 338 338 338 339 339 339 340 341 341 341 342 343 347 346 344 344 344 344 346 347 348 349 344 336 328 325 319 315 315 316 319 339 349
320 320 320 321 323 324 325 327 330 333 334 333 333 334 334 334 332 331 330 330 331 331 331 332 333 335 335 335 337 337 338 337 337 337 338 338 338 339 341 342 343 343 347 344 345 344 345 345 345 345 346 347 338 331 327 325 322 314 313 314 317 335 348
317 318 319 321 321 321 323 324 325 325 325 324 324 326 328 329 329 327 326 326 326 327 328 330 331 333 334 335 337 337 337 338 338 338 337 336 337 338 338 338 341 344 343 342 343 343 343 345 343 343 343 340 338 339 329 327 326 314 312 312 315 332 344
315 316 318 319 320 321 323 324 324 323 324 324 324 324 324 325 326 326 323 324 324 323 323 324 326 329 333 334 335 337 339 339 338 337 336 334 335 336 336 339 340 341 344 344 343 342 342 344 342 342 338 334 332 331 329 327 325 321 311 311 312 319 346
317 317 317 318 320 324 319 320 321 322 323 324 326 327 327 325 324 324 325 324 323 323 324 325 325 326 327 327 325 326 329 333 336 336 336 337 335 338 339 337 336 339 342 341 342 342 341 338 336 333 332 333 333 332 330 328 325 324 312 311 311 314 325
315 316 318 322 323 320 317 317 317 318 320 321 323 325 325 325 323 322 321 322 322 325 328 328 326 327 326 325 326 326 326 328 334 339 339 340 339 336 336 338 341 341 340 340 339 337 335 333 332 329 328 329 330 330 329 331 330 327 318 313 311 312 314
313 312 312 313 314 318 316 314 314 315 316 318 319 319 321 322 322 321 321 320 321 323 324 325 326 329 328 327 325 326 325 325 325 327 330 334 337 337 338 339 338 338 339 338 337 335 332 331 330 327 325 325 326 327 328 328 330 328 327 317 313 311 312
314 314 315 316 317 317 318 314 315 315 315 315 317 318 319 320 321 322 320 320 323 325 325 322 324 325 324 326 323 323 324 324 326 325 326 329 329 329 327 326 325 325 329 335 337 334 332 330 328 325 324 323 323 325 326 326 327 328 327 326 317 314 313
313 313 313 314 316 319 317 315 313 311 311 310 311 313 314 316 320 321 319 319 326 325 325 326 327 327 320 317 319 323 322 321 322 323 326 326 325 325 324 322 321 318 319 322 324 333 334 333 329 323 323 323 322 322 324 325 323 321 324 326 327 318 315
312 313 313 313 314 316 314 314 314 313 311 310 312 311 314 311 312 315 316 320 322 323 324 327 327 324 321 318 320 321 321 318 318 319 321 324 324 322 320 319 319 318 316 317 319 323 326 333 331 327 325 323 324 324 320 318 317 316 317 321 322 321 318
311 312 312 313 315 315 312 313 312 311 310 310 311 313 313 311 311 311 313 316 317 321 323 327 325 326 321 316 318 320 318 317 316 316 319 319 320 320 319 317 315 315 318 316 316 319 324 326 329 329 329 326 321 320 319 317 315 314 314 314 313 313 314
311 313 314 314 315 314 311 311 311 312 312 312 312 314 315 314 313 314 312 313 315 317 322 326 323 318 317 319 323 325 325 325 327 320 316 318 318 317 316 314 314 313 314 314 316 318 319 322 323 321 321 320 319 317 317 315 314 313 310 311 310 310 310
312 314 314 315 315 315 310 311 312 312 313 313 312 312 311 311 313 315 313 316 316 317 319 323 322 319 316 317 320 323 325 321 318 316 315 315 314 313 313 313 314 313 314 315 314 316 317 320 320 321 319 319 318 317 314 315 315 315 307 308 304 304 305
313 314 314 315 316 313 314 314 312 312 312 310 310 311 312 311 313 314 316 315 316 317 319 321 319 315 315 317 317 319 321 322 320 318 317 314 313 313 313 312 302 306 315 314 312 303 297 303 316 317 315 313 313 315 316 314 314 303 298 296 295 296 296
315 315 316 315 314 313 314 313 315 313 312 310 312 312 314 312 311 311 314 314 316 317 316 318 319 317 315 318 318 320 319 319 318 318 318 314 313 314 315 312 312 298 299 308 308 300 294 294 296 302 311 320 311 310 304 303 299 296 295 294 294 293 293
317 317 317 316 315 314 314 315 315 314 315 312 314 313 312 313 312 312 314 316 316 315 313 315 316 315 317 319 321 324 322 319 320 320 319 318 316 314 315 313 312 313 301 296 301 297 294 294 294 294 298 304 311 317 314 307 298 295 294 294 294 293 293
Wind_Speed
7 11 11 12 12 12 13 14 15 15 14 13 13 15 14 12 12 11 11 11 11 10 9 9 9 8 9 8 7 5 6 5 5 6 6 6 6 7 6 5 6 5 5 6 5 6 6 5 5 5 5 5 4 4 4 3 3 3 2 2 2 2 2
8 9 12 12 12 13 13 14 13 13 13 13 12 15 14 13 12 12 12 12 12 12 11 10 10 9 9 8 7 6 6 6 6 5 6 5 5 6 6 6 6 6 5 5 5 5 5 6 5 5 5 5 5 4 4 4 4 4 4 3 3 3 2
9 7 9 11 13 12 13 13 13 13 13 12 13 14 14 14 13 14 13 12 12 11 10 11 10 10 8 8 7 7 7 6 5 6 7 7 7 7 6 6 6 6 6 5 5 5 5 6 5 5 5 5 5 5 4 4 4 4 4 4 4 4 3
10 8 7 9 12 14 14 14 14 13 12 15 14 15 15 15 14 14 13 14 14 12 12 11 11 10 9 8 8 8 8 7 6 6 7 6 7 6 6 5 5 4 5 6 6 5 4 5 6 5 6 6 5 5 4 5 5 4 4 4 4 4 4
11 8 7 7 9 11 13 14 14 14 12 14 16 16 15 15 14 13 13 13 15 15 14 13 11 10 9 9 7 7 8 8 6 6 6 6 6 6 6 7 6 6 6 6 5 5 5 5 6 5 5 5 5 5 5 5 5 4 4 4 5 4 5
11 8 8 6 7 9 12 14 15 15 13 14 15 15 14 15 13 15 14 13 13 12 11 11 11 10 10 9 8 8 7 6 6 6 6 6 6 6 7 7 7 7 7 8 6 6 5 5 6 6 6 5 5 6 5 5 5 5 4 4 4 4 4
10 6 4 4 4 6 9 12 15 15 14 14 14 14 13 14 14 14 12 13 13 13 12 12 11 10 9 9 8 8 8 8 7 7 6 6 6 7 7 7 7 7 7 6 6 6 6 6 6 6 7 6 6 6 6 5 5 5 4 4 4 4 4
7 5 4 4 3 4 5 7 11 13 12 12 14 14 15 14 13 12 12 12 13 12 12 12 11 10 9 9 9 8 8 8 7 7 6 7 6 7 7 7 7 7 6 7 7 6 7 6 6 6 7 6 6 6 6 6 6 6 5 5 5 4 4
7 6 6 6 2 1 4 2 7 13 12 15 15 16 15 14 12 13 13 12 11 12 12 12 12 10 9 9 8 8 8 8 8 7 7 8 7 8 8 7 8 7 7 8 7 6 7 7 7 6 7 7 7 6 6 6 7 6 5 6 6 6 5
7 5 1 8 9 11 11 12 11 4 8 13 13 14 15 13 12 12 12 12 12 13 13 12 10 9 9 9 9 9 8 9 8 8 8 9 7 8 9 8 7 7 8 8 7 7 7 7 8 6 7 8 8 7 6 6 6 5 6 7 7 6 6
2 3 5 10 10 9 5 7 12 8 4 10 14 14 13 13 13 12 12 12 12 12 12 11 10 10 10 10 10 9 8 9 9 9 10 10 8 8 8 8 8 6 7 8 8 8 7 7 7 7 7 9 9 8 7 7 7 6 6 6 6 6 6
4 4 3 4 9 12 11 8 3 10 8 6 8 14 13 13 13 12 12 13 12 12 11 10 10 11 11 10 11 10 10 9 10 10 11 10 9 8 8 8 8 7 7 7 9 8 8 8 7 8 7 8 9 9 6 5 6 7 7 6 6 6 6
1 1 2 2 0 2 9 8 8 13 14 17 18 7 2 6 8 6 4 4 7 7 4 2 7 10 10 11 12 11 11 10 11 11 10 10 9 8 7 7 8 8 9 8 9 9 8 8 9 8 7 1 9 14 11 10 11 12 11 7 4 6 6
6 6 6 5 8 11 10 11 12 11 11 14 12 13 14 15 14 14 12 11 9 8 8 9 14 12 5 4 9 10 10 10 10 10 10 9 9 9 9 8 8 8 9 8 9 9 9 4 2 3 7 8 9 9 7 7 8 7 3 4 10 9 7
10 9 10 11 11 10 8 7 9 9 10 10 11 11 10 9 8 9 9 6 6 8 8 7 7 7 7 9 13 10 5 6 6 5 7 8 8 7 6 7 8 7 6 8 9 8 6 7 8 6 5 6 7 8 6 6 5 5 8 8 9 9 11
11 10 10 10 9 9 8 6 4 7 8 11 14 13 12 9 9 9 8 5 5 6 5 8 9 9 7 8 8 4 6 11 5 2 5 4 3 3 2 1 1 2 4 6 7 4 7 6 7 7 7 6 5 6 6 6 5 4 7 8 7 8 8
9 6 8 10 7 6 8 9 10 10 7 3 8 13 12 11 10 10 10 9 7 7 6 8 7 4 7 8 7 6 5 3 8 13 13 8 5 3 3 3 3 3 2 3 4 5 4 5 6 6 6 7 7 7 6 6 6 10 10 10 12 8 7
8 6 5 5 6 7 11 12 10 8 9 9 9 8 6 9 9 10 11 10 8 7 8 8 8 8 7 5 6 4 4 5 7 6 7 10 12 11 9 4 5 4 3 2 5 4 4 4 4 5 6 6 7 7 6 6 7 9 5 6 7 9 9
8 7 7 7 7 7 8 9 8 8 9 9 10 10 8 6 6 7 7 10 9 6 7 8 7 6 7 6 6 4 4 6 7 4 2 5 7 6 6 7 3 2 2 2 1 3 5 4 5 5 4 5 6 6 4 5 5 3 2 5 6 8 9
7 7 8 7 7 6 6 7 7 6 7 7 7 10 11 11 8 7 4 5 6 6 6 8 6 6 8 8 5 3 3 6 10 6 4 4 5 4 1 2 4 3 2 2 1 1 3 4 4 4 4 5 6 4 4 4 3 3 3 4 6 7 7
6 5 7 6 8 9 8 7 6 6 7 6 6 6 7 9 8 9 7 6 6 5 7 6 6 5 7 8 5 4 4 5 6 5 3 4 4 3 3 1 4 5 3 1 2 2 3 5 5 3 3 3 4 5 4 2 2 1 3 5 6 6 6
5 6 8 8 9 8 7 7 8 8 8 6 8 8 8 7 6 8 8 7 7 6 6 6 6 5 6 7 4 3 2 4 4 5 6 6 3 2 4 3 3 2 5 2 1 0 2 3 3 3 2 2 4 4 4 2 4 4 4 5 6 6 4
9 8 9 10 10 9 7 6 7 8 8 8 8 9 9 9 10 10 9 10 8 8 6 6 5 4 4 5 5 3 1 1 3 5 6 7 5 2 4 1 4 7 4 2 1 1 4 2 1 1 2 3 3 5 3 2 5 6 6 5 5 2 2
7 6 7 8 9 10 10 10 10 9 10 11 10 9 8 8 9 10 10 9 7 7 8 7 5 4 3 3 2 3 3 2 2 4 4 5 7 5 5 0 2 2 2 3 3 3 4 4 2 1 1 4 5 3 4 2 5 9 9 8 6 3 1
7 6 7 9 9 9 9 9 9 9 9 9 11 9 9 10 11 11 11 8 8 6 7 6 4 2 2 2 1 0 1 3 3 3 4 5 5 4 3 2 1 1 4 5 4 2 1 1 1 2 2 4 4 7 6 3 5 11 12 11 8 2 2
6 6 6 7 8 7 7 7 10 11 11 11 9 8 8 9 11 12 12 11 10 9 8 6 4 2 1 2 3 3 2 0 2 2 3 4 3 2 2 1 0 2 1 3 4 5 4 5 5 3 5 5 4 4 5 5 6 8 12 12 12 11 1
7 7 7 7 7 7 8 8 8 9 8 7 7 7 7 8 10 10 9 10 10 9 6 5 5 5 3 4 4 5 5 3 1 1 2 1 2 2 2 1 0 1 3 3 3 2 4 6 6 7 5 4 4 4 4 4 4 5 10 11 12 13 9
6 7 6 6 7 5 6 7 7 7 7 5 5 5 6 7 9 7 7 8 9 6 4 3 3 4 5 6 5 4 5 5 4 2 3 3 3 3 2 1 2 3 3 2 3 6 7 7 7 7 6 5 5 5 4 5 6 3 8 10 12 13 15
5 5 5 6 7 5 6 7 7 8 7 6 7 6 4 5 7 5 6 9 6 4 4 3 2 2 3 4 5 4 4 5 7 7 5 5 6 6 5 5 5 4 4 4 4 5 6 6 6 6 6 4 4 4 5 5 5 7 5 8 10 10 9
5 5 5 5 5 5 6 8 7 7 7 7 7 7 7 5 6 6 7 6 3 3 3 3 3 4 5 4 4 5 5 6 6 6 6 6 7 7 7 6 5 5 4 3 3 3 4 4 5 5 5 6 5 4 4 3 3 5 7 6 7 10 12
4 4 4 6 5 5 6 7 7 7 7 7 7 7 7 6 6 6 7 5 5 5 5 4 4 3 4 4 4 5 6 6 6 6 6 6 6 6 5 5 5 6 5 5 4 3 4 4 4 5 5 5 5 4 3 3 4 4 7 12 10 11 12
4 4 4 5 5 5 4 5 6 6 6 7 7 6 5 6 6 6 4 5 6 5 5 5 4 3 3 3 3 4 6 7 6 6 6 6 6 6 4 4 5 6 5 6 6 6 5 3 4 4 4 4 4 4 3 3 4 4 5 6 8 7 10
4 4 4 4 2 3 4 4 5 5 5 5 5 5 5 5 5 4 4 6 5 6 6 5 4 4 4 4 3 4 3 6 4 5 5 5 5 5 5 4 5 5 5 5 5 5 5 5 4 3 2 3 4 3 3 4 4 5 5 5 6 6 6
5 4 4 4 4 4 4 4 4 4 4 4 4 4 5 5 5 5 5 5 5 5 5 5 4 4 4 4 3 4 4 4 7 6 5 5 5 5 5 5 5 6 5 4 3 5 6 5 6 5 4 4 3 3 3 4 4 4 5 5 5 5 5
6 6 5 5 4 4 4 3 2 2 2 1 1 2 3 3 3 4 4 4 4 5 4 4 4 5 5 4 4 3 4 5 4 3 4 4 5 5 5 4 5 5 4 3 2 2 4 6 5 4 3 4 3 4 4 4 4 3 4 4 6 5 4
5 6 5 5 5 5 5 4 4 3 1 1 1 0 0 1 2 2 2 3 3 3 4 3 3 4 4 3 3 3 3 2 3 3 4 4 4 4 5 8 8 5 2 2 6 8 7 4 3 3 4 5 3 3 4 3 1 3 4 4 5 6 5
5 4 4 5 5 5 6 5 5 5 4 3 2 2 1 1 2 2 1 2 3 2 2 2 2 2 2 2 2 2 2 2 3 2 3 3 3 3 4 3 5 8 9 8 7 8 9 9 6 7 6 5 4 3 5 3 3 3 3 3 4 6 6
4 4 4 4 6 6 5 5 5 5 5 4 4 4 3 3 3 2 2 1 2 3 3 2 3 3 1 2 2 3 3 3 2 3 3 2 2 2 4 3 3 2 5 6 6 5 7 8 7 7 8 9 6 3 2 4 5 6 7 7 7 7 9
Wind_Direction
181 184 184 177 172 174 173 176 174 176 175 175 171 174 176 175 176 175 179 182 184 180 187 181 181 180 182 186 193 191 195 182 186 180 182 190 189 182 182 190 190 197 197 194 203 199 205 209 203 205 207 205 202 199 188 176 179 187 173 171 168 177 182
189 187 185 177 170 172 175 178 177 176 176 178 171 173 174 177 175 178 180 183 185 183 184 185 182 185 186 188 190 190 196 193 185 185 178 189 194 188 184 187 191 196 200 202 197 207 202 210 200 204 206 204 202 196 188 187 184 182 187 180 176 198 188
193 183 185 185 175 175 177 181 181 178 176 178 174 174 176 176 177 179 178 181 185 185 184 187 187 187 187 187 188 196 192 193 186 185 180 190 193 190 191 187 192 191 201 202 196 199 202 206 206 201 198 200 200 196 194 193 194 190 197 189 184 190 204
195 188 184 186 187 181 181 183 185 184 176 178 176 176 176 177 179 179 177 180 182 181 185 190 187 186 188 188 193 195 194 197 192 188 186 189 191 190 188 196 198 197 199 206 206 201 202 197 200 201 198 196 198 199 197 199 201 199 200 191 195 198 206
199 192 188 179 185 187 186 186 187 187 179 180 175 176 176 177 177 178 180 182 182 183 186 186 187 187 188 189 194 195 196 195 196 190 186 189 187 185 191 200 202 204 208 209 209 204 203 198 203 200 203 196 198 199 205 206 204 197 195 193 198 201 211
196 193 191 181 176 183 187 186 187 184 178 178 176 176 177 176 178 180 181 181 185 186 182 181 186 185 190 191 194 194 192 198 196 191 189 189 184 193 199 204 203 207 207 213 206 206 203 200 202 202 203 199 197 201 204 204 210 200 201 199 208 207 209
194 180 182 180 178 181 188 188 186 185 177 177 174 173 174 176 180 181 180 181 182 182 183 185 186 184 191 191 196 190 191 194 195 195 192 193 192 193 206 210 207 205 207 206 210 203 203 207 205 202 204 201 199 202 203 204 210 206 200 200 217 222 217
190 199 206 197 201 183 187 195 189 182 172 173 171 174 176 179 176 177 179 182 181 181 185 184 185 185 187 192 195 195 191 194 193 196 196 200 202 207 203 211 211 207 203 203 212 199 205 204 207 201 202 205 205 206 205 205 206 206 194 202 211 221 218
188 198 211 215 204 356 360 272 208 180 167 173 175 176 177 175 177 178 180 178 180 179 186 187 185 182 181 187 192 197 194 192 193 195 201 205 207 214 212 208 211 207 204 207 207 205 204 200 200 196 198 205 205 203 204 207 211 207 198 203 205 209 217
188 182 134 52 40 32 18 346 348 313 177 171 174 175 176 177 177 177 177 179 178 183 184 185 183 179 179 184 191 192 192 194 194 199 203 209 208 212 214 209 204 202 207 208 203 203 206 201 202 196 198 204 209 206 204 209 215 212 206 206 205 208 216
107 164 143 107 104 103 75 335 325 322 274 184 174 177 175 176 177 177 179 179 181 184 183 183 181 179 181 183 188 189 190 194 196 200 206 211 210 212 214 214 212 200 204 206 209 206 203 206 204 201 199 204 208 211 211 212 215 214 214 213 210 210 214
138 150 146 163 152 140 161 193 251 337 348 309 199 173 177 176 176 177 177 182 181 181 182 185 182 182 181 184 189 193 193 194 197 200 203 208 213 214 215 219 219 217 211 205 206 205 204 205 206 203 205 207 207 207 211 220 219 216 211 209 213 217 219
75 95 128 146 231 177 161 169 58 55 46 40 2 325 207 172 167 161 141 71 27 10 1 246 194 183 184 188 192 192 196 195 197 197 200 204 210 215 216 215 221 218 217 212 208 205 204 208 208 207 209 210 34 35 23 23 8 1 337 320 267 215 219
47 36 23 40 44 40 48 70 83 72 64 84 79 56 53 56 62 69 77 82 88 86 69 37 19 4 336 231 200 195 198 200 195 195 198 200 205 211 215 221 225 217 214 211 214 210 210 181 73 50 75 114 151 172 174 174 175 167 201 298 311 306 244
38 40 45 59 77 82 77 82 107 117 111 112 108 96 81 82 84 81 77 89 109 116 119 122 117 114 93 25 350 334 283 214 190 191 196 200 204 212 224 230 232 229 213 209 210 209 162 144 156 146 124 126 150 167 172 166 191 203 198 186 202 258 273
31 36 51 64 89 92 89 77 67 109 119 113 121 125 124 122 126 126 121 115 119 120 130 125 136 143 151 159 170 193 346 342 337 182 138 129 148 153 139 130 295 258 198 210 215 186 174 150 151 156 154 144 133 148 153 166 173 220 231 225 231 211 244
41 43 73 73 59 78 95 85 64 36 24 69 129 134 128 125 122 119 119 124 119 115 120 116 119 160 172 175 171 141 120 71 16 354 358 5 33 43 73 59 51 42 51 89 106 134 160 158 146 157 166 154 155 162 172 172 176 183 198 214 238 248 248
62 56 72 103 109 108 102 103 101 99 103 88 44 35 67 107 126 126 129 120 115 131 133 129 143 161 166 101 81 58 65 92 86 59 38 31 14 359 346 11 58 47 23 63 110 118 128 143 157 160 170 168 171 172 175 178 165 178 208 248 256 248 238
52 52 44 44 72 81 88 86 88 105 110 104 114 107 77 52 62 83 97 113 128 145 131 129 136 133 102 102 104 113 128 103 74 67 108 99 87 53 7 333 10 39 47 50 71 121 130 146 149 166 172 172 173 178 170 128 63 32 316 289 277 254 227
48 48 48 42 47 65 69 76 76 55 44 52 72 94 100 85 61 37 40 101 124 127 115 120 111 103 97 94 91 83 73 104 122 158 190 124 95 87 95 319 345 12 31 43 20 104 136 144 151 163 176 181 182 154 106 108 34 4 323 290 277 272 254
92 88 75 57 56 69 75 82 94 101 99 80 58 42 77 94 103 100 73 36 55 69 96 89 96 89 93 91 89 79 67 94 125 139 111 96 122 151 238 231 27 3 349 342 194 186 167 161 155 156 168 174 154 139 128 104 41 336 309 299 294 302 290
42 47 59 50 63 65 75 77 80 81 83 90 88 80 70 69 74 83 83 81 74 62 54 67 74 71 78 99 101 90 78 92 95 84 71 65 103 207 234 213 113 342 291 236 260 304 62 51 58 71 76 120 140 144 119 81 22 352 333 323 336 321 73
52 47 53 55 51 47 41 62 77 81 84 77 74 78 82 84 80 74 69 67 59 58 49 49 50 38 38 81 113 124 140 101 88 100 106 113 125 202 258 335 120 204 223 191 217 38 31 40 51 144 171 150 134 106 85 32 6 4 351 349 348 320 109
59 64 66 66 58 60 63 68 70 70 81 87 84 83 86 86 85 85 81 77 75 81 79 64 45 16 19 17 50 97 108 82 76 96 111 131 147 190 235 70 172 180 144 145 109 104 182 185 156 39 14 61 81 111 109 71 10 11 2 2 8 306 244
68 54 53 59 64 64 57 53 56 60 56 61 75 74 80 87 87 85 83 78 71 59 68 74 76 46 11 351 340 13 89 119 119 114 123 129 153 183 210 205 185 132 108 134 139 199 219 212 51 352 34 76 95 103 99 77 32 19 5 3 2 1 238
77 77 66 66 66 71 69 64 66 60 61 60 62 70 76 80 84 82 80 73 61 49 42 35 33 30 8 330 330 330 342 32 116 123 117 121 128 160 218 244 350 358 93 134 165 197 172 166 182 165 59 41 52 42 47 56 37 26 21 13 6 348 294
71 75 76 69 68 67 64 63 67 71 72 69 70 71 66 74 79 83 86 82 73 66 52 29 22 23 33 42 20 10 2 5 16 58 80 118 154 168 164 179 174 127 106 131 138 121 87 89 80 86 88 68 56 59 62 72 66 47 40 33 27 16 4
71 63 59 66 69 66 73 72 65 64 59 53 61 70 85 89 87 89 91 90 93 102 104 78 69 57 46 37 21 16 20 22 26 40 48 37 48 61 66 31 63 74 81 53 60 84 88 85 81 78 69 54 38 45 37 49 61 50 48 43 38 37 20
70 69 61 57 52 50 75 69 59 52 43 32 29 25 23 75 89 80 77 82 88 104 114 118 111 102 85 54 30 16 22 30 41 42 36 38 41 44 38 37 46 44 48 69 69 67 75 85 93 88 82 75 50 32 24 14 30 32 47 48 41 24 25
77 75 69 54 55 50 53 66 57 48 37 30 28 26 22 32 64 66 66 50 8 30 43 48 56 75 73 59 46 35 39 42 48 48 51 54 61 59 52 44 41 35 28 56 81 91 92 89 94 97 99 95 83 63 55 37 22 20 19 0 358 1 0
89 90 83 78 67 56 55 61 57 52 42 29 27 28 31 29 45 48 43 5 15 19 15 8 10 30 63 68 73 78 73 62 48 47 51 54 67 72 63 60 52 55 23 37 39 85 117 110 97 103 102 94 91 90 71 31 37 19 14 18 28 26 17
78 65 59 65 64 59 68 61 56 51 44 25 18 23 28 28 39 45 2 359 15 8 2 14 23 43 51 46 58 84 96 82 70 61 59 58 57 60 43 54 65 71 49 44 42 41 51 91 117 108 106 107 105 87 69 44 28 20 11 14 12 18 10
125 118 114 99 89 86 73 73 64 56 50 35 6 14 14 25 33 35 14 22 7 14 12 21 36 43 46 36 36 30 58 91 97 86 67 61 63 72 75 60 58 64 58 57 55 45 48 53 74 87 84 95 82 78 58 43 27 14 7 10 10 10 3
148 130 143 128 113 93 77 76 84 69 57 40 3 5 7 13 12 9 14 14 18 17 30 32 42 52 49 43 47 60 49 55 70 64 47 34 43 48 42 49 71 67 48 53 65 85 67 55 60 59 64 72 66 59 53 38 31 26 10 2 5 1 357
161 153 150 134 141 125 127 117 98 98 95 89 342 9 12 357 347 350 5 357 5 21 40 50 46 42 36 32 63 65 83 84 89 79 80 67 53 45 35 23 28 71 77 1 334 353 100 108 97 79 78 79 69 70 44 30 36 22 17 17 10 5 352
159 156 164 172 157 152 151 150 145 148 155 235 248 207 76 316 326 331 334 346 357 32 37 27 56 64 54 50 56 62 67 73 88 106 97 96 93 80 60 50 60 28 56 92 62 65 35 19 105 106 92 80 27 2 63 59 34 43 19 350 343 350 346
152 154 158 156 138 146 149 163 162 164 176 206 223 223 248 271 270 289 303 326 347 36 62 83 96 78 58 72 83 93 84 82 78 83 122 134 136 116 97 60 20 40 40 48 43 42 55 60 47 46 69 110 127 85 87 68 36 7 303 332 344 330 309
145 144 140 146 156 159 157 164 166 171 187 193 190 202 214 228 251 254 303 0 36 76 73 80 100 102 91 116 129 123 113 86 85 70 74 105 129 127 121 128 97 38 37 47 53 63 63 59 58 49 49 50 53 68 25 18 2 338 335 332 325 302 293